Location: Newark
(51.0500°N, 12.4500°E)
Time: 09:41:02
(UTC+00:00)

Vanguard 1 - Pass Details

Date: 22 February 2020
Orbit: 649 x 3833 km, 34.2° (Epoch: 07 April)

Event Time Altitude Azimuth Distance (km) Brightness Sun altitude
Rises 10:41:46 0° 260° (W) 7,337 14.5 28.0°
Reaches altitude 10° 10:47:53 10° 253° (WSW) 5,864 14.2 28.2°
Maximum altitude 11:01:22 33° 198° (SSW) 3,042 14.2 28.5°
Drops below altitude 10° 11:09:35 10° 138° (SE) 3,544 13.8 28.6°
Sets 11:12:16 0° 128° (SE) 4,189 13.9 28.6°
